User: anonymous   Login
Location: The Jewett Observatory
(46.7288°N, 117.1525°W)
Time: 06:40:40
(UTC-07:00)
Language:

Cosmos 1844 Rocket - Orbit

View from above orbital plane
View from above orbital plane
View from above satellite
View from above satellite

Ground track
Ground track

The orbit data is extracted from the following two-line orbital elements,

1 17974U 87041B   16121.84790716 -.00000030  00000-0  89279-5 0  9995
2 17974  71.0093  58.5799 0015923 298.7167  94.2587 14.17202640498264
Epoch (UTC): 30 April 2016 20:20:59
Eccentricity: 0.0015923
inclination: 71.0093°
perigee height: 823 km
apogee height: 846 km
right ascension of ascending node: 58.5799°
argument of perigee: 298.7167°
revolutions per day: 14.17202640
mean anomaly at epoch: 94.2587°
orbit number at epoch: 49826

The dashed part of the orbit path shows where the satellite is in the earth's shadow,  

DLR